星链-2279 (STARLINK-2279 )

导读 | 星芒AI

STARLINK-2279 是 SpaceX Starlink 卫星互联网项目中的一颗低轨通信卫星。它属于 Starlink 二代星座计划,旨在提供更高速、低延迟的全球互联网服务。该卫星采用先进推进系统和激光通信技术,以提升网络效率和覆盖范围。作为 Starlink 计划的一部分,STARLINK-2279 有助于扩展 SpaceX 在全球卫星互联网市场的影响力,并支持偏远地区的网络接入。

基本信息
目录编号:
47991
目录名称:
STARLINK-2279
国际标识:
2021-024Q
轨道中心:
EARTH
卫星名称:
星链-2279
卫星全名:
星链-2279 (STARLINK-2279 )
卫星状态:
已陨落 最后检测时间 2025-01-30
发射日期:
2021-03-24 UTC
国别 :
美国 (US)
星等 :
--
轨道信息
数据来源 国际轨道数据
星历时间: 2025-01-30T16:40:17+0800
轨道信息已过期272天
半长轴: 6530.385km
偏心率: 0.0005014
轨道倾角: 53.020°
近地点辐角 307.898°
升交点赤经 241.740°
平近点角 174.690°
近地点: 148.975km
远地点: 155.525km
周期: 87.532分钟
每日圈数: 16.451088
详细信息
固有亮度:
5
最大亮度:
2.5
卫星平台:
Starlink V1.0
覆盖范围:
全球
运营商:
太空探索技术公司
运营商所在国:
美国
制造商(研发单位):
太空探索技术公司
制造商所在国:
美国
使用方式:
暂无
卫星简介
星链(Starlink)计划是由太空探索技术公司(SpaceX)提出的一个巨型低轨卫星互联网星座项目,计划在2019年至2024年间在太空搭建由约1.2万颗卫星组成的“星链”网络,其中1584颗将部署在地球上空550千米处的近地轨道,并从2020年开始工作。该卫星仍在工作。